This demonstration page uses our WeatherBlox Daily Observations layout. Learn more.

Left ArrowRight Arrow

Hourly Observations for November 8, 2015

Temp ( °F °C ) Dew Point ( °F °C ) Humidity (%) Winds ( mph kmh ) Pressure ( in mb ) Visibility ( mi km ) Precip ( " mm )
12:53 am 00:53 Clear 33 0.6 31 -0.6 92 92 Calm 30.42 1030 8 13 0.00 0.00
1:53 am 01:53 Clear 32 0 30 -1.1 92 92 Calm 30.43 1031 9 14 0.00 0.00
2:53 am 02:53 Clear with Mist and Fog 31 -0.6 30 -1.1 96 96 Calm 30.43 1031 6 10 0.00 0.00
3:53 am 03:53 Clear with Mist and Fog 30 -1.1 29 -1.7 96 96 Calm 30.43 1030 6 10 0.00 0.00
4:53 am 04:53 Clear with Mist and Fog 29 -1.7 28 -2.2 96 96 Calm 30.44 1031 5 8 0.00 0.00
5:53 am 05:53 Clear 29 -1.7 28 -2.2 96 96 Calm 30.46 1032 8 13 0.00 0.00
6:53 am 06:53 Clear with Mist and Fog 28 -2.2 26 -3.3 92 92 Calm 30.48 1032 6 10 0.00 0.00
7:53 am 07:53 Sunny with Mist and Fog 29 -1.7 27 -2.8 92 92 Calm 30.49 1032 6 10 0.00 0.00
8:53 am 08:53 Sunny 38 3.3 34 1.1 86 86 Calm 30.50 1033 7 11 0.00 0.00
9:53 am 09:53 Sunny 46 7.8 37 2.8 71 71 Calm 30.51 1033 10 16 0.00 0.00
10:53 am 10:53 Sunny 50 10 32 0 50 50 VRB 6 9 30.50 1033 10 16 0.00 0.00
11:53 am 11:53 Sunny 52 11.1 32 0 47 47 VRB 3 6 30.47 1032 10 16 0.00 0.00
12:53 pm 12:53 Sunny 54 12.2 30 -1.1 40 40 VRB 6 9 30.44 1031 10 16 0.00 0.00
1:53 pm 13:53 Sunny 55 12.8 25 -3.9 31 31 E 9 15 30.41 1030 10 16 0.00 0.00
2:53 pm 14:53 Sunny 55 12.8 24 -4.4 30 30 E 5 7 30.39 1029 10 16 0.00 0.00
3:53 pm 15:53 Sunny 56 13.3 26 -3.3 32 32 E 8 13 30.38 1029 10 16 0.00 0.00
4:53 pm 16:53 Sunny 53 11.7 26 -3.3 35 35 E 6 9 30.37 1028 10 16 0.00 0.00
5:53 pm 17:53 Clear 43 6.1 30 -1.1 60 60 NE 5 7 30.37 1028 10 16 0.00 0.00
6:53 pm 18:53 Clear 40 4.4 27 -2.8 60 60 ENE 3 6 30.37 1028 10 16 0.00 0.00
7:53 pm 19:53 Clear 39 3.9 28 -2.2 65 65 E 3 6 30.37 1029 10 16 0.00 0.00
8:53 pm 20:53 Clear 35 1.7 28 -2.2 76 76 Calm 30.37 1029 10 16 0.00 0.00
9:53 pm 21:53 Clear 33 0.6 29 -1.7 85 85 Calm 30.37 1028 10 16 0.00 0.00
10:53 pm 22:53 Clear 31 -0.6 28 -2.2 89 89 Calm 30.36 1028 10 16 0.00 0.00
11:53 pm 23:53 Clear 31 -0.6 28 -2.2 89 89 Calm 30.35 1028 10 16 0.00 0.00

Powered by AerisWeather